This is the latest recevied weather packets stored in our database for station/object SR7U-1. If no packets are shown the sender has not sent any weather packets the latest 10 day(s).
| Time | Temp. | Humidity | Pressure | Rain* | Wind** | Luminosity | Snow |
|---|---|---|---|---|---|---|---|
| 1777235815 | 4.44° C | 46% | 1022.6 hPa | - | - | - | - |
| 1777235075 | 4.44° C | 45% | 1022.7 hPa | - | - | - | - |
| 1777234280 | 4.44° C | 44% | 1022.7 hPa | - | - | - | - |
| 1777233515 | 5° C | 43% | 1022.6 hPa | - | - | - | - |
| 1777232755 | 4.44° C | 43% | 1022.5 hPa | - | - | - | - |
| 1777231990 | 5° C | 43% | 1022.6 hPa | - | - | - | - |
| 1777231255 | 5.56° C | 42% | 1022.4 hPa | - | - | - | - |
| 1777230380 | 5.56° C | 42% | 1022.4 hPa | - | - | - | - |
| 1777229515 | 6.11° C | 41% | 1022.2 hPa | - | - | - | - |
| 1777228650 | 6.67° C | 40% | 1022 hPa | - | - | - | - |
| 1777227795 | 6.67° C | 39% | 1021.7 hPa | - | - | - | - |
| 1777227010 | 6.67° C | 40% | 1021.7 hPa | - | - | - | - |
| 1777226248 | 7.22° C | 37% | 1021.4 hPa | - | - | - | - |
| 1777225419 | 8.33° C | 35% | 1021.3 hPa | - | - | - | - |
| 1777224610 | 8.33° C | 35% | 1021.1 hPa | - | - | - | - |
| 1777223840 | 8.89° C | 35% | 1020.9 hPa | - | - | - | - |
| 1777223033 | 8.89° C | 34% | 1020.9 hPa | - | - | - | - |
| 1777222237 | 8.89° C | 35% | 1020.7 hPa | - | - | - | - |
| 1777221499 | 8.89° C | 34% | 1020.6 hPa | - | - | - | - |
| 1777220639 | 8.33° C | 35% | 1020.5 hPa | - | - | - | - |
| 1777219885 | 8.89° C | 33% | 1020.5 hPa | - | - | - | - |
| 1777219145 | 9.44° C | 32% | 1020.3 hPa | - | - | - | - |
| 1777218310 | 9.44° C | 32% | 1020.4 hPa | - | - | - | - |
| 1777217534 | 9.44° C | 32% | 1020.4 hPa | - | - | - | - |
| 1777216698 | 9.44° C | 31% | 1020.2 hPa | - | - | - | - |
* Rain since midnight (hover to see other rain measurements)
** Current wind speed in m/s (hover to see current wind gust speed)